KC0AFB Weather Reports


time (UTC)temp
C
wind
direction
speed
KPH
gust
KPH
rain 1hr
cm
rain 24hr
cm
rain mn
cm
humidity
%
barometer
mb
20260505050807 0 330 0.0 1.6 0.00 0.00 0.00 67 1011.7
20260505050305 0 335 0.0 0.0 0.00 0.00 0.00 67 1011.8
20260505041735 1 326 6.4 8.0 0.00 0.00 0.00 60 1011.6
20260505041232 1 326 4.8 4.8 0.00 0.00 0.00 60 1011.5
20260505040729 2 289 4.8 8.0 0.00 0.00 0.00 59 1011.5
20260505040226 2 298 4.8 4.8 0.00 0.00 0.00 58 1011.3
20260505035723 2 316 8.0 9.7 0.00 0.00 0.00 59 1011.5
20260505035219 2 344 8.0 11.3 0.00 0.00 0.00 58 1011.3
20260505034716 2 306 4.8 4.8 0.00 0.00 0.00 59 1011.7
20260505034213 2 321 8.0 8.0 0.00 0.00 0.00 59 1011.3
20260505033709 1 318 6.4 8.0 0.00 0.00 0.00 60 1011.5
20260505033208 1 331 4.8 8.0 0.00 0.00 0.00 60 1011.4
20260505032705 2 311 4.8 8.0 0.00 0.00 0.00 60 1011.4
20260505032201 2 331 6.4 8.0 0.00 0.00 0.00 59 1011.4
20260505031658 2 337 4.8 4.8 0.00 0.00 0.00 58 1011.5
20260505031155 2 316 6.4 9.7 0.00 0.00 0.00 58 1011.1
20260505030652 2 320 4.8 8.0 0.00 0.00 0.00 58 1011.1
20260505030147 2 319 4.8 4.8 0.00 0.00 0.00 58 1011.1
20260505025643 2 349 6.4 8.0 0.00 0.00 0.00 57 1011.1
20260505025142 2 315 6.4 8.0 0.00 0.00 0.00 57 1010.7
20260505024639 3 357 4.8 4.8 0.00 0.00 0.00 57 1010.9
20260505024136 3 6 4.8 4.8 0.00 0.00 0.00 56 1010.6
20260505023634 3 329 8.0 11.3 0.00 0.00 0.00 56 1010.6
20260505023131 3 328 9.7 9.7 0.00 0.00 0.00 55 1010.6
20260505022628 3 310 9.7 11.3 0.00 0.00 0.00 54 1010.7
20260505022125 3 331 11.3 11.3 0.00 0.00 0.00 54 1010.3
20260505021622 3 314 6.4 11.3 0.00 0.00 0.00 54 1010.4
20260505021119 3 347 8.0 9.7 0.00 0.00 0.00 53 1010.3
20260505020614 4 319 8.0 11.3 0.00 0.00 0.00 53 1010.3
20260505020111 4 326 9.7 12.9 0.00 0.00 0.00 52 1010.0
20260505015608 5 350 14.5 17.7 0.00 0.00 0.00 51 1010.1
20260505015105 5 314 9.7 12.9 0.00 0.00 0.00 51 1010.0
20260505014601 5 317 11.3 12.9 0.00 0.00 0.00 51 1009.8
20260505014058 5 299 11.3 17.7 0.00 0.00 0.00 50 1009.9
20260505013555 5 338 9.7 12.9 0.00 0.00 0.00 50 1009.8
20260505013053 5 351 16.1 22.5 0.00 0.00 0.00 50 1009.8
20260505012551 5 2 11.3 14.5 0.00 0.00 0.00 50 1009.8
20260505012048 6 326 11.3 12.9 0.00 0.00 0.00 49 1009.7
20260505011543 6 340 9.7 11.3 0.00 0.00 0.00 48 1009.8
20260505011041 6 329 9.7 11.3 0.00 0.00 0.00 48 1009.6
20260505010536 6 301 16.1 22.5 0.00 0.00 0.00 47 1009.5
20260505010033 6 288 24.1 32.2 0.00 0.00 0.00 45 1009.3
20260505005529 6 304 17.7 29.0 0.00 0.00 0.00 45 1009.4
20260505005027 6 338 16.1 20.9 0.00 0.00 0.00 46 1009.6
20260505004523 6 281 17.7 22.5 0.00 0.00 0.00 47 1009.3
20260505004020 7 338 16.1 20.9 0.00 0.00 0.00 47 1009.7
20260505003517 7 313 17.7 24.1 0.00 0.00 0.00 47 1009.4
20260505003015 7 320 22.5 25.7 0.00 0.00 0.00 48 1009.5
20260505002509 7 336 20.9 24.1 0.00 0.00 0.00 48 1009.5
20260505002009 7 334 22.5 27.4 0.00 0.00 0.00 47 1009.3
20260505001506 7 314 20.9 27.4 0.00 0.00 0.00 47 1009.4
20260505001003 7 278 20.9 25.7 0.00 0.00 0.00 47 1009.4
20260505000500 7 358 16.1 25.7 0.00 0.00 0.00 48 1009.5
20260504235957 7 317 16.1 20.9 0.00 0.00 0.00 48 1009.4
20260504235454 7 344 19.3 24.1 0.00 0.00 0.00 47 1008.9
20260504234951 7 340 16.1 20.9 0.00 0.00 0.00 48 1009.2
20260504234448 7 318 14.5 17.7 0.00 0.00 0.00 47 1009.2
20260504233944 7 330 25.7 29.0 0.00 0.00 0.00 47 1009.2
20260504233440 7 336 24.1 33.8 0.00 0.00 0.00 47 1009.2
20260504232937 8 309 17.7 27.4 0.00 0.00 0.00 46 1009.2
20260504232434 8 324 25.7 35.4 0.00 0.00 0.00 46 1009.3
20260504231931 8 278 24.1 29.0 0.00 0.00 0.00 47 1009.2
20260504231427 8 268 17.7 17.7 0.00 0.00 0.00 47 1009.3
20260504230924 7 341 17.7 22.5 0.00 0.00 0.00 47 1009.0
20260504230421 7 293 16.1 16.1 0.00 0.00 0.00 48 1009.2
20260504225920 7 306 24.1 33.8 0.00 0.00 0.00 46 1008.8
20260504225416 8 308 24.1 33.8 0.00 0.00 0.00 46 1009.3
20260504224914 8 309 17.7 22.5 0.00 0.00 0.00 48 1008.7
20260504224410 7 300 22.5 25.7 0.00 0.00 0.00 46 1009.2
20260504223907 9 297 19.3 35.4 0.00 0.00 0.00 44 1008.6
20260504223403 8 306 22.5 27.4 0.00 0.00 0.00 44 1008.6
20260504222859 8 309 27.4 38.6 0.00 0.00 0.00 45 1008.7
20260504222356 8 311 27.4 32.2 0.00 0.00 0.00 45 1008.5
20260504221855 8 323 27.4 35.4 0.00 0.00 0.00 46 1008.8
20260504221351 8 311 19.3 29.0 0.00 0.00 0.00 47 1008.8
20260504220848 8 303 19.3 22.5 0.00 0.00 0.00 45 1008.4
20260504220344 8 311 24.1 29.0 0.00 0.00 0.00 47 1008.5
20260504215842 8 337 16.1 17.7 0.00 0.00 0.00 47 1008.5
20260504215338 8 302 24.1 29.0 0.00 0.00 0.00 48 1008.6
20260504214834 8 318 24.1 29.0 0.00 0.00 0.00 49 1008.6
20260504214331 9 304 19.3 22.5 0.00 0.00 0.00 49 1008.5
20260504213828 8 334 12.9 17.7 0.00 0.00 0.00 54 1008.6
20260504213324 9 301 24.1 32.2 0.00 0.00 0.00 50 1008.4
20260504212822 9 311 32.2 37.0 0.00 0.00 0.00 47 1008.5
20260504212317 8 331 17.7 24.1 0.00 0.00 0.00 50 1008.3
20260504211815 8 318 17.7 22.5 0.00 0.00 0.00 51 1008.7
20260504211311 8 317 16.1 22.5 0.00 0.00 0.00 51 1008.5
20260504210809 8 287 17.7 22.5 0.00 0.00 0.00 49 1008.3
20260504210306 8 309 29.0 38.6 0.00 0.00 0.00 49 1008.4
20260504205803 8 320 20.9 29.0 0.00 0.00 0.00 51 1008.5
20260504205301 8 296 22.5 27.4 0.00 0.00 0.00 51 1008.5
20260504204758 8 316 16.1 22.5 0.00 0.00 0.00 50 1008.7
20260504204256 8 321 11.3 16.1 0.00 0.00 0.00 50 1008.7
20260504203756 8 335 12.9 14.5 0.00 0.00 0.00 50 1008.6
20260504203252 8 303 19.3 24.1 0.00 0.00 0.00 50 1008.3
20260504202747 8 296 29.0 38.6 0.00 0.00 0.00 50 1008.4
20260504202245 8 295 17.7 24.1 0.00 0.00 0.00 51 1008.5
20260504201742 8 340 12.9 14.5 0.00 0.00 0.00 53 1008.5
20260504201239 8 299 20.9 32.2 0.00 0.00 0.00 54 1008.4
20260504200737 8 303 20.9 25.7 0.00 0.00 0.00 54 1008.6
20260504200232 8 299 22.5 33.8 0.00 0.00 0.00 52 1008.6
20260504195729 7 314 24.1 29.0 0.00 0.00 0.00 54 1008.6
20260504195225 8 327 22.5 27.4 0.00 0.00 0.00 54 1008.5
20260504194722 7 300 14.5 24.1 0.00 0.00 0.00 53 1008.6
20260504194218 8 256 24.1 29.0 0.00 0.00 0.00 51 1008.6
20260504193715 8 279 19.3 25.7 0.00 0.00 0.00 53 1008.6
20260504193212 7 316 17.7 20.9 0.00 0.00 0.00 54 1008.6
20260504192710 8 337 22.5 27.4 0.00 0.00 0.00 53 1008.4
20260504192208 7 300 19.3 25.7 0.00 0.00 0.00 51 1008.4
20260504191707 8 297 24.1 33.8 0.00 0.00 0.00 49 1008.4
20260504191203 9 284 24.1 32.2 0.00 0.00 0.00 48 1008.2
20260504190658 8 309 12.9 16.1 0.00 0.00 0.00 51 1008.3
20260504190155 8 323 24.1 32.2 0.00 0.00 0.00 49 1008.3
20260504185651 8 308 30.6 37.0 0.00 0.00 0.00 47 1008.2
20260504185147 9 282 17.7 25.7 0.00 0.00 0.00 49 1008.2
20260504184644 8 309 24.1 32.2 0.00 0.00 0.00 47 1008.3
20260504184133 8 339 24.1 32.2 0.00 0.00 0.00 46 1008.3
20260504183631 9 322 20.9 25.7 0.00 0.00 0.00 46 1008.5
20260504183128 9 322 25.7 29.0 0.00 0.00 0.00 45 1008.2
20260504182626 8 275 30.6 35.4 0.00 0.00 0.00 45 1008.0
20260504182123 8 298 25.7 27.4 0.00 0.00 0.00 47 1008.1
20260504181620 8 316 29.0 33.8 0.00 0.00 0.00 46 1008.0
20260504181118 8 315 24.1 27.4 0.00 0.00 0.00 46 1008.2
20260504180617 8 313 29.0 37.0 0.00 0.00 0.00 45 1008.0
20260504180115 8 303 25.7 32.2 0.00 0.00 0.00 46 1008.1
20260504175612 8 287 22.5 29.0 0.00 0.00 0.00 47 1008.2
20260504175109 7 278 33.8 43.5 0.00 0.00 0.00 48 1008.1
20260504174607 7 322 35.4 40.2 0.00 0.00 0.00 48 1008.1
20260504174103 7 307 20.9 25.7 0.00 0.00 0.00 48 1008.1
20260504173600 8 283 32.2 43.5 0.00 0.00 0.00 47 1008.1
20260504173058 8 312 25.7 29.0 0.00 0.00 0.00 48 1008.3
20260504172554 7 318 20.9 25.7 0.00 0.00 0.00 49 1008.3
20260504172050 7 301 27.4 37.0 0.00 0.00 0.00 48 1008.0
20260504171547 8 294 20.9 29.0 0.00 0.00 0.00 48 1007.9
20260504171044 7 324 20.9 25.7 0.00 0.00 0.00 48 1008.0
20260504170540 8 337 25.7 33.8 0.00 0.00 0.00 46 1008.0
20260504150918 5 307 17.7 24.1 0.00 0.00 0.00 59 1008.2
20260504150415 5 292 24.1 32.2 0.00 0.00 0.00 59 1008.4
20260504140841 5 337 25.7 29.0 0.00 0.00 0.00 58 1007.7
20260504140337 5 289 17.7 24.1 0.00 0.00 0.00 58 1007.7
20260504130806 5 283 14.5 20.9 0.00 0.00 0.00 65 1007.0
20260504130302 5 319 22.5 25.7 0.00 0.00 0.00 65 1007.1
20260504120226 5 308 19.3 27.4 0.00 0.00 0.00 63 1005.5
20260504110653 6 325 24.1 32.2 0.00 0.00 0.00 58 1004.7
20260504110149 6 294 19.3 22.5 0.00 0.00 0.00 57 1004.8
20260504100610 7 304 11.3 14.5 0.00 0.00 0.00 57 1004.3
20260504100108 8 3 20.9 25.7 0.00 0.00 0.00 56 1004.3
20260504082004 5 294 3.2 3.2 0.00 0.00 0.00 84 1002.8
20260504081501 5 237 1.6 3.2 0.00 0.00 0.00 84 1002.7
20260504081001 5 162 0.0 0.0 0.00 0.00 0.00 82 1002.7
20260504080458 5 244 1.6 1.6 0.00 0.00 0.00 82 1002.6